This is the latest recevied weather packets stored in our database for station/object SR9WXP. If no packets are shown the sender has not sent any weather packets the latest 1 day(s).
| Time | Temp. | Humidity | Pressure | Rain* | Wind** | Luminosity | Snow |
|---|---|---|---|---|---|---|---|
| 1836274723 | 11.11° C | 88% | 866.9 hPa | - | 1.79 m/s, 173° | - | - |
| 1836274662 | 11.11° C | 88% | 866.9 hPa | - | 1.79 m/s, 169° | - | - |
| 1836274570 | 12.22° C | 89% | 866.8 hPa | - | 1.34 m/s, 183° | - | - |
| 1836274544 | 10.56° C | 88% | 866.9 hPa | - | 2.24 m/s, 171° | - | - |
| 1836274513 | 12.22° C | 89% | 866.7 hPa | - | 1.34 m/s, 187° | - | - |
| 1836274420 | 10.56° C | 88% | 866.9 hPa | - | 2.24 m/s, 173° | - | - |
| 1836274393 | 12.22° C | 88% | 866.8 hPa | - | 1.34 m/s, 186° | - | - |
| 1836274302 | 10.56° C | 88% | 866.9 hPa | - | 2.24 m/s, 173° | - | - |
| 1836274270 | 12.22° C | 88% | 866.8 hPa | - | 1.34 m/s, 187° | - | - |
| 1836274182 | 10.56° C | 88% | 866.9 hPa | - | 2.24 m/s, 173° | - | - |
| 1836274153 | 11.67° C | 88% | 866.8 hPa | - | 1.34 m/s, 181° | - | - |
| 1836274120 | 10.56° C | 88% | 866.9 hPa | - | 2.24 m/s, 174° | - | - |
| 1836274063 | 10.56° C | 89% | 866.9 hPa | - | 2.24 m/s, 175° | - | - |
| 1836273943 | 10.56° C | 89% | 866.9 hPa | - | 2.24 m/s, 176° | - | - |
| 1778031334 | 6.67° C | 67% | 848.3 hPa | - | 4.02 m/s, 168° | - | - |
| 1778031260 | 6.67° C | 67% | 848.3 hPa | - | 4.47 m/s, 168° | - | - |
| 1778031205 | 6.67° C | 67% | 848.4 hPa | - | 4.92 m/s, 167° | - | - |
| 1778031083 | 6.67° C | 67% | 848.4 hPa | - | 4.92 m/s, 171° | - | - |
| 1778030957 | 7.22° C | 67% | 848.4 hPa | - | 4.47 m/s, 176° | - | - |
| 1778030839 | 7.22° C | 67% | 848.5 hPa | - | 4.47 m/s, 177° | - | - |
| 1778030719 | 7.22° C | 67% | 848.4 hPa | - | 4.92 m/s, 173° | - | - |
| 1778030659 | 7.22° C | 67% | 848.4 hPa | - | 4.47 m/s, 173° | - | - |
| 1778030657 | 7.22° C | 66% | 848.4 hPa | - | 4.47 m/s, 173° | - | - |
| 1778030599 | 7.22° C | 66% | 848.4 hPa | - | 3.58 m/s, 175° | - | - |
| 1778030479 | 7.22° C | 66% | 848.5 hPa | - | 4.47 m/s, 173° | - | - |
* Rain since midnight (hover to see other rain measurements)
** Current wind speed in m/s (hover to see current wind gust speed)